Location: *
(37.5724°S, 58.0067°E)
Time: 03:55:32
(UTC+00:00)

CZ-4 R/B - Pass Details

Date: 25 January 2021
Orbit: 531 x 598 km, 97.7° (Epoch: 07 March)

Event Time Altitude Azimuth Distance (km) Brightness Sun altitude
Rises 15:52:34 0° 174° (S) 2,879 5.3 -5.6°
Reaches altitude 10° 15:54:47 10° 178° (S) 1,971 4.5 -6.0°
Maximum altitude 15:58:58 54° 254° (WSW) 741 2.5 -6.7°
Drops below altitude 10° 16:03:06 10° 331° (NNW) 1,941 4.1 -7.4°
Sets 16:05:17 0° 336° (NNW) 2,830 4.9 -7.8°
